Hourly Data Report for May 24, 2004

SHERBROOKE A
QUEBEC

45°26'00.000" N
71°41'00.000" W
241.40 m
7028124
71610
YSC

Download Data

Hourly Data (May 2004)
Hourly Data Report for May 24, 2004
TIME
LST
Temp Definition
°C
Dew Point Definition
°C
Rel Hum Definition
%
Precip. Amount Definition
mm

Wind Dir Definition
10's deg

Wind Spd Definition
km/h
Visibility Definition
km
Stn Press Definition
kPa
Hmdx Definition


Wind Chill Definition


Weather Definition


00:00 11.5 8.4 81   7 9 15.0 98.43     Rain
01:00 10.9 9.3 90   11 7 15.0 98.42     Rain
02:00 10.7 9.1 90   6 7 11.3 98.33     Rain
03:00 10.4 8.8 90   5 9 12.9 98.33     Rain
04:00 10.0 8.9 93   6 9 15.0 98.34     Drizzle
05:00 10.0 8.9 93   7 13 5.6 98.32     Drizzle
06:00 8.7 7.6 93   4 13 15.0 98.40      
07:00 8.6 7.8 95   5 15 3.2 98.38     Drizzle, Fog
08:00 9.0 8.1 94   5 15 3.2 98.32     Rain, Fog
09:00 9.9 9.0 94   6 15 12.9 98.17     Rain
10:00 10.8 9.8 94   7 13 12.9 98.15     Rain
11:00 11.4 10.4 94   8 9 9.7 98.14     Rain, Fog
12:00 10.8 9.8 94   9 15 3.2 98.06     Rain, Fog
13:00 10.7 9.7 94   9 15 3.2 97.99     Rain, Drizzle, Fog
14:00 11.0 9.8 92   8 13 9.7 97.98     Rain, Fog
15:00 11.3 9.8 90   11 13 24.1 97.98     Cloudy
16:00 11.4 10.5 94   10 9 16.1 97.94     Rain, Drizzle
17:00 11.6 10.1 91   7 6 15.0 97.92      
18:00 11.4 10.0 91   8 6 15.0 97.92      
19:00 11.1 9.8 92   30 4 1.4 98.05     Heavy Rain
20:00 10.8 9.9 94   8 4 15.0 98.04      
21:00 10.6 9.5 93   3 6 15.0 97.99     Rain
22:00 10.2 9.0 92   9 11 15.0 97.90     Rain
23:00 10.0 8.6 91   11 15 15.0 97.85     Rain

Notes on Data Quality.

Legend

  • E = Estimated
  • M = Missing
  • NA = Not Available*
  • [empty] = Indicates an unobserved value
Date modified: